Regional Weather Roundup
Issued by NWS Jackson, KY

Home | Current Version | Previous Version | Graphics & Text | Print | Product List | Glossary On
Versions: 1 2 3 4 5 6 7 8 9 10 11 12 13 14 15 16 17 18 19 20 21 22 23 24 25 26 27
000
ASUS43 KJKL 251110
RWRJKL

EAST KENTUCKY HOURLY WEATHER ROUNDUP
NATIONAL WEATHER SERVICE JACKSON KY
600 AM EST SAT FEB 25 2017

NOTE: "FAIR" INDICATES FEW OR NO CLOUDS BELOW 12,000 FEET WITH
NO SIGNIFICANT WEATHER AND/OR OBSTRUCTIONS TO VISIBILITY.

* THESE REPORTS ARE NOT UNDER NWS QUALITY CONTROL AND MAY NOT
  REPORT WEATHER SUCH AS PRECIPITATION AND FOG.

KYZ079-080-083-085-087-088-110-112-115-119-120-251200
...EASTERN KENTUCKY...

CITY           SKY/WX    TMP DP  RH WIND       PRES   REMARKS
JACKSON        CLOUDY    45  44  97 VRB3      29.70R
LONDON         CLOUDY    48  44  86 W8        29.74R
SOMERSET*      CLOUDY    46  39  76 W8        29.77R
MONTICELLO*    MOCLDY    45  42  89 W6        29.78R
WILLIAMSBURG*  CLOUDY    46  46 100 S3        29.76R
MIDDLESBORO*   LGT RAIN  50  45  82 CALM      29.75R
HARLAN APT*    CLOUDY    46  41  81 SW7       29.74R
PIKE CO APT*   CLOUDY    46  46 100 W9        29.69R
BIG SANDY APT* CLOUDY    47  45  90 W8        29.70R
MOREHEAD APT*  CLOUDY    48  41  76 W6        29.70R
$$

KYZ035-036-041-042-044-050-067-078-099-251200
...CENTRAL KENTUCKY...

CITY           SKY/WX    TMP DP  RH WIND       PRES   REMARKS
FLEMING/MASON* CLOUDY    46  40  81 W12       29.69R
DANVILLE*      MOCLDY    43  32  65 W9        29.77R
LEXINGTON      MOCLDY    43  29  57 W12       29.73R
FRANKFORT      CLEAR     43  28  55 W7        29.73R
LOUISVILLE     MOCLDY    42  28  57 W22G30    29.78R
LEBANON*         N/A     41  30  65 W12       29.78R
GLASGOW*       CLOUDY    43  29  59 W14       29.82R
BOWLING GREEN  CLOUDY    45  30  55 NW8       29.84R
$$

KYZ091>093-OHZ055-061-077-WVZ005-015-034-035-042-251200
...SOUTHERN OHIO/WEST VIRGINIA...

CITY           SKY/WX    TMP DP  RH WIND       PRES   REMARKS
COVINGTON      CLOUDY    42  33  70 W9        29.68R
COLUMBUS       CLOUDY    45  36  70 NW6       29.61F
DAYTON         MOCLDY    39  31  72 W13       29.64F WCI  31
WILMINGTON     MOCLDY    41  33  73 W7        29.65S
HUNTINGTON     CLOUDY    47  43  86 W6        29.65F FOG
CHARLESTON     LGT RAIN  57  54  89 SW6       29.62R FOG
PINEVILLE*     HVY RAIN  55  52  88 MISG      29.73R
BECKLEY        LGT RAIN  54  50  86 NW10      29.66R FOG
BLUEFIELD      LGT RAIN  57  48  72 SW12G21   29.68R
LOGAN CO APT*  CLOUDY    55  54  94 SW7G17    29.65S FOG
$$

VAZ002-007-008-TNZ017-027-036-066-071-251200
...SOUTHWEST VIRGINIA/EAST TENNESSEE...

CITY           SKY/WX    TMP DP  RH WIND       PRES   REMARKS
WISE*          LGT RAIN  54  54 100 SW15G22   29.69S
JONESVILLE*    LGT RAIN  52  46  82 NW12G21   29.73R
ABINGDON*      LGT RAIN  57  53  87 W9        29.70R
BRISTOL        RAIN      57  53  86 SW14      29.69S
MORRISTOWN*    CLOUDY    57  55  94 W9        29.68R
SEVIERVILLE*   CLOUDY    57  54  88 SW6       29.70R
KNOXVILLE      LGT RAIN  57  55  93 W12       29.71R
LAFOLLETTE*    CLOUDY    52  41  66 NE7G14    29.77R
OAK RIDGE      CLOUDY    55  52  89 S5        29.73R
CROSSVILLE     CLEAR     48  41  76 W10       29.77R
NASHVILLE      CLEAR     47  29  49 NW15G22   29.86R
$$

...KEY TO REMARKS...
VSB - VISIBILITY IN MILES
WCI - WIND CHILL INDEX
HX  - HEAT INDEX

$$




USA.gov is the U.S. government's official web portal to all federal, state and local government web resources and services.